Weather in Krasnaya Polyana

Russia / Rostov Oblast     46°07′16″N   41°29′48″E
temp.,
°C
wind,
m/s
gust,
m/s
humid.,
%
clouds,
%
prec.,
mm/h
press.,
hPa
HPBL,
m
23 october, sat
sat2300:00+11sw34750 0.0 102059
03:00+10sw36820 0.0 102086
06:00+10sw47700 0.0 1019104
09:00+14sw47535 0.0 1020305
12:00+20wsw683692 0.0 10191047
15:00+21wsw6935100 0.0 10181356
18:00+16sw335370 0.0 101847
21:00+14sw4115889 0.0 1018219
24 october, sun
sun2400:00+12wsw3879100 0.0 1019170
03:00+11wsw369091 0.0 1018133
06:00+12w2490100 0.0 1018189
09:00+12nne2388100 0.2 1019255
12:00+11n3591100 1.8 1019314
15:00+11n3591100 4.7 1018336
18:00+9nnw71085100 3.0 1019585
21:00+8nnw5788100 8.8 1020612
25 october, mon
mon2500:00+7wnw3787100 2.8 1021862
03:00+8wsw59766 3.4 1022360
06:00+6w497598 0.1 1023326
09:00+6nw686965 0.1 1025717
12:00+7nw6863100 0.2 10261358
15:00+8nw694198 0.3 10271979
18:00+5n36596 0.0 1029154
21:00+4nnw33625 0.0 103145
26 october, tue
tue2600:00+2n35660 0.0 1032110
03:00+1n237147 0.0 103245
06:000n22740 0.0 103322
09:00+3nne23610 0.0 1034315
12:00+6ne33495 0.0 1033910
15:00+8ne33440 0.0 10321002
18:00+5ene34570 0.0 103273
21:00+3e36640 0.0 1032114
27 october, wed
wed2700:00+2e38690 0.0 1032155
03:00+2e49720 0.0 1031177
06:00+1e410720 0.0 1030220
09:00+5ese611550 0.0 1029447
12:00+10ese79350 0.0 1027794
15:00+12ese79290 0.0 1025917
18:00+7e410420 0.0 1025211
21:00+6ese512490 0.0 1023269